Ainsworth, NE

1:04 PM CST on December 17, 2017 (GMT -0600)
Ainsworth Municipal

Weather History for KANW - December, 2012

Change the Weather History Date:

Sunday, December 16, 2012

  Actual Average Record
Temperature  
Mean Temperature 32 °F -  
Max Temperature 41 °F 35 °F 55 °F (2002)
Min Temperature 24 °F 15 °F -4 °F (2000)
Degree Days  
Heating Degree Days 32    
Moisture  
Dew Point 21 °F    
Average Humidity 70    
Maximum Humidity 90    
Minimum Humidity 33    
Precipitation  
Precipitation 0.00 in - - ()
Sea Level Pressure  
Sea Level Pressure 29.70 in    
Wind  
Wind Speed 6 mph (SSW)    
Max Wind Speed 17 mph    
Max Gust Speed 18 mph    
Visibility 10 miles    
Events      
Averages and records for this station are not official NWS values.
T = Trace of Precipitation, MM = Missing Value Source: NWS Daily Summary

Daily Weather History Graph

Daily Weather History Graph

Search for Another Location

Airport or City:

Trip Planner

Search our weather history database for the weather conditions in past years. The results will help you decide how hot, cold, wet, or windy it might be!

Date:

Astronomy

Dec. 16, 2012 Rise Set
Actual Time 8:03 AM CST 5:07 PM CST
Civil Twilight 7:31 AM CST 5:39 PM CST
Nautical Twilight 6:56 AM CST 6:15 PM CST
Astronomical Twilight 6:21 AM CST 6:49 PM CST
Moon 10:34 AM CST (12/16) 9:28 PM CST (12/16)
Length of Visible Light 10h 08m
Length of Day
9h 03m
Waxing Crescent, 16% of the Moon is Illuminated
Dec 16
Waxing Crescent
Dec 19
First Quarter
Dec 28
Full
Jan 4
Last Quarter
Jan 11
New

Hourly Weather History & Observations

Time (CST) Temp. Windchill Dew Point Humidity Pressure Visibility Wind Dir Wind Speed Gust Speed Precip Events Conditions
12:15 AM 24.8 °F 16.1 °F 20.3 °F 83% 29.74 in 10.0 mi WNW 8.1 mph - N/A   Scattered Clouds
12:35 AM 24.8 °F 17.9 °F 21.2 °F 86% 29.74 in 10.0 mi WNW 5.8 mph - N/A   Mostly Cloudy
12:55 AM 26.6 °F 18.2 °F 21.0 °F 79% 29.74 in 10.0 mi NW 8.1 mph - N/A   Overcast
1:15 AM 26.8 °F 19.3 °F 21.2 °F 79% 29.74 in 10.0 mi NW 6.9 mph - N/A   Overcast
1:35 AM 26.6 °F 18.2 °F 21.2 °F 80% 29.72 in 10.0 mi NW 8.1 mph - N/A   Mostly Cloudy
1:55 AM 26.4 °F 18.0 °F 21.2 °F 81% 29.73 in 10.0 mi NW 8.1 mph - N/A   Scattered Clouds
2:15 AM 25.9 °F 20.3 °F 21.2 °F 82% 29.73 in 10.0 mi WNW 4.6 mph - N/A   Scattered Clouds
2:35 AM 26.6 °F 20.0 °F 21.2 °F 80% 29.74 in 10.0 mi NW 5.8 mph - N/A   Overcast
2:55 AM 26.8 °F 19.3 °F 21.9 °F 82% 29.74 in 10.0 mi NW 6.9 mph - N/A   Overcast
3:15 AM 27.1 °F 21.8 °F 21.7 °F 80% 29.74 in 10.0 mi NW 4.6 mph - N/A   Overcast
3:35 AM 27.0 °F 21.6 °F 21.6 °F 80% 29.74 in 10.0 mi NW 4.6 mph - N/A   Overcast
3:55 AM 25.7 °F 21.5 °F 21.2 °F 83% 29.75 in 10.0 mi WNW 3.5 mph - N/A   Overcast
4:15 AM 25.0 °F 20.7 °F 20.8 °F 84% 29.74 in 10.0 mi West 3.5 mph - N/A   Overcast
4:35 AM 25.7 °F 20.1 °F 21.9 °F 86% 29.74 in 10.0 mi West 4.6 mph - N/A   Overcast
4:55 AM 26.1 °F 21.9 °F 22.3 °F 86% 29.74 in 10.0 mi West 3.5 mph - N/A   Overcast
5:15 AM 26.6 °F 22.6 °F 22.1 °F 83% 29.74 in 10.0 mi WNW 3.5 mph - N/A   Overcast
5:35 AM 26.2 °F - 21.7 °F 83% 29.74 in 10.0 mi Calm Calm - N/A   Overcast
5:55 AM 25.9 °F - 21.4 °F 83% 29.74 in 10.0 mi Calm Calm - N/A   Scattered Clouds
6:15 AM 24.8 °F - 21.0 °F 86% 29.74 in 10.0 mi Calm Calm - N/A   Clear
6:35 AM 25.0 °F - 21.6 °F 87% 29.74 in 10.0 mi Calm Calm - N/A   Clear
6:55 AM 26.6 °F - 21.2 °F 80% 29.74 in 10.0 mi Calm Calm - N/A   Scattered Clouds
7:15 AM 25.9 °F 21.7 °F 23.2 °F 90% 29.74 in 10.0 mi North 3.5 mph - N/A   Overcast
7:35 AM 26.6 °F - 22.6 °F 85% 29.74 in 10.0 mi Calm Calm - N/A   Overcast
7:55 AM 26.6 °F - 22.5 °F 84% 29.74 in 10.0 mi Calm Calm - N/A   Overcast
8:15 AM 26.4 °F - 22.8 °F 86% 29.74 in 10.0 mi Calm Calm - N/A   Mostly Cloudy
8:35 AM 25.7 °F - 22.5 °F 88% 29.74 in 10.0 mi Calm Calm - N/A   Scattered Clouds
8:55 AM 26.4 °F - 23.7 °F 90% 29.74 in 10.0 mi Calm Calm - N/A   Mostly Cloudy
9:15 AM 27.5 °F - 23.0 °F 83% 29.74 in 10.0 mi Calm Calm - N/A   Mostly Cloudy
9:35 AM 28.9 °F - 22.8 °F 78% 29.75 in 10.0 mi Calm Calm - N/A   Mostly Cloudy
9:55 AM 28.6 °F 24.8 °F 22.6 °F 78% 29.74 in 10.0 mi East 3.5 mph - N/A   Overcast
10:15 AM 28.8 °F 25.0 °F 22.6 °F 78% 29.74 in 10.0 mi SSE 3.5 mph - N/A   Overcast
10:35 AM 29.1 °F 24.1 °F 22.8 °F 77% 29.74 in 10.0 mi SSE 4.6 mph - N/A   Overcast
10:55 AM 29.8 °F 24.9 °F 22.6 °F 75% 29.75 in 10.0 mi South 4.6 mph - N/A   Overcast
11:15 AM 30.7 °F 26.0 °F 22.3 °F 71% 29.75 in 10.0 mi SSW 4.6 mph - N/A   Overcast
11:35 AM 31.6 °F 28.3 °F 21.0 °F 65% 29.74 in 10.0 mi South 3.5 mph - N/A   Overcast
11:55 AM 32.4 °F - 21.7 °F 65% 29.72 in 10.0 mi Calm Calm - N/A   Overcast
12:15 PM 34.7 °F 30.6 °F 22.1 °F 60% 29.71 in 10.0 mi SSE 4.6 mph - N/A   Overcast
12:35 PM 35.1 °F 31.0 °F 21.2 °F 57% 29.70 in 10.0 mi SE 4.6 mph - N/A   Overcast
12:55 PM 35.4 °F 30.5 °F 21.0 °F 56% 29.70 in 10.0 mi SSE 5.8 mph - N/A   Overcast
1:15 PM 36.9 °F 31.4 °F 21.0 °F 53% 29.69 in 10.0 mi SE 6.9 mph - N/A   Overcast
1:35 PM 38.3 °F 33.9 °F 21.0 °F 50% 29.68 in 10.0 mi SE 5.8 mph - N/A   Overcast
1:55 PM 40.3 °F 35.5 °F 17.8 °F 40% 29.68 in 10.0 mi South 6.9 mph - N/A   Overcast
2:15 PM 40.5 °F 36.5 °F 18.0 °F 40% 29.67 in 10.0 mi SSW 5.8 mph - N/A   Mostly Cloudy
2:35 PM 39.7 °F 35.6 °F 17.6 °F 41% 29.66 in 10.0 mi South 5.8 mph - N/A   Scattered Clouds
2:55 PM 40.3 °F 35.5 °F 17.4 °F 40% 29.66 in 10.0 mi South 6.9 mph - N/A   Scattered Clouds
3:15 PM 41.9 °F 36.3 °F 14.2 °F 33% 29.65 in 10.0 mi South 9.2 mph - N/A   Mostly Cloudy
3:35 PM 41.2 °F 36.6 °F 15.4 °F 35% 29.65 in 10.0 mi SSE 6.9 mph - N/A   Scattered Clouds
3:55 PM 38.3 °F 33.2 °F 18.0 °F 44% 29.65 in 10.0 mi South 6.9 mph - N/A   Clear
4:15 PM 37.4 °F 32.1 °F 18.9 °F 47% 29.64 in 10.0 mi SE 6.9 mph - N/A   Clear
4:35 PM 36.7 °F 30.5 °F 20.1 °F 51% 29.64 in 10.0 mi SE 8.1 mph - N/A   Clear
4:55 PM 36.7 °F 31.2 °F 20.1 °F 51% 29.64 in 10.0 mi SE 6.9 mph - N/A   Mostly Cloudy
5:15 PM 35.4 °F 29.7 °F 20.3 °F 54% 29.64 in 10.0 mi SE 6.9 mph - N/A   Overcast
5:35 PM 32.7 °F 25.7 °F 20.3 °F 60% 29.64 in 10.0 mi SE 8.1 mph - N/A   Scattered Clouds
5:55 PM 31.5 °F 24.2 °F 20.3 °F 63% 29.64 in 10.0 mi SE 8.1 mph - N/A   Clear
6:15 PM 32.0 °F 25.6 °F 20.7 °F 63% 29.65 in 10.0 mi SE 6.9 mph - N/A   Clear
6:35 PM 32.2 °F 25.0 °F 21.2 °F 64% 29.65 in 10.0 mi SSE 8.1 mph - N/A   Clear
6:55 PM 31.8 °F 24.6 °F 21.2 °F 65% 29.65 in 10.0 mi SSE 8.1 mph - N/A   Clear
7:15 PM 31.3 °F 23.9 °F 21.4 °F 67% 29.65 in 10.0 mi South 8.1 mph - N/A   Clear
7:35 PM 31.6 °F 23.7 °F 21.7 °F 67% 29.65 in 10.0 mi South 9.2 mph - N/A   Clear
7:55 PM 31.6 °F 23.7 °F 21.6 °F 66% 29.65 in 10.0 mi South 9.2 mph - N/A   Clear
8:15 PM 31.3 °F 22.7 °F 21.0 °F 66% 29.64 in 10.0 mi South 10.4 mph - N/A   Clear
8:35 PM 30.2 °F 21.3 °F 21.2 °F 69% 29.64 in 10.0 mi South 10.4 mph - N/A   Clear
8:55 PM 29.7 °F 22.0 °F 21.2 °F 71% 29.64 in 10.0 mi South 8.1 mph - N/A   Clear
9:15 PM 29.1 °F 22.1 °F 21.7 °F 74% 29.64 in 10.0 mi SSW 6.9 mph - N/A   Clear
9:35 PM 30.0 °F 23.2 °F 22.1 °F 72% 29.64 in 10.0 mi WSW 6.9 mph - N/A   Mostly Cloudy
9:55 PM 30.2 °F 21.9 °F 22.1 °F 72% 29.64 in 10.0 mi WSW 9.2 mph - N/A   Overcast
10:15 PM 30.4 °F 22.2 °F 22.1 °F 71% 29.64 in 10.0 mi West 9.2 mph - N/A   Mostly Cloudy
10:35 PM 31.5 °F 23.5 °F 22.1 °F 68% 29.64 in 10.0 mi WNW 9.2 mph - N/A   Overcast
10:55 PM 31.6 °F 23.1 °F 23.0 °F 70% 29.65 in 10.0 mi WNW 10.4 mph - N/A   Overcast
11:15 PM 32.0 °F 20.8 °F 23.2 °F 70% 29.66 in 10.0 mi NW 17.3 mph - N/A   Overcast
11:35 PM 27.9 °F 16.3 °F 21.4 °F 77% 29.67 in 10.0 mi NW 15.0 mph - N/A   Scattered Clouds
11:55 PM 26.1 °F 15.6 °F 21.2 °F 82% 29.68 in 10.0 mi NW 11.5 mph 18.4 mph N/A   Clear